FALCON 9 R/B

基本信息
目录编号:
43179
目录名称:
FALCON 9 R/B
国际标识:
2018-013B
轨道中心:
EARTH
物体状态:
在轨
发射日期:
2018-01-31 UTC
国别:
美国 (US)
轨道信息
数据来源: 国际轨道数据
星历时间: 2026-07-12T23:29:23+0800
半长轴: 23178.568km
偏心率: 0.7164178
轨道倾角: 23.678°
近地点辐角: 302.266°
升交点赤经: 92.038°
平近点角: 7.823°
近地点: 194.892km
远地点: 33405.97km
周期: 585.315分钟
每日圈数: 2.460214
详细信息
发射场:
AFETR
轨道高度:
LEO
数据来源:
AOE Integration Group
参考系:
TEME
时间系统:
UTC
历元类型:
SGP4
2D轨道图
3D轨道图
轨道高度分析图
轨道倾角分析图
轨道综合分析图
查看轨道综合分析图